Content
SEND FEEDBACK

Daily
Averages
Monthly
Summary
United States of America

NEW YORK - CENTRAL PARK, NEW YORK


Home > North America > United States > New York
Elevation: 14 feet     Latitude: 40 47N     Longitude: 073 58W

WEATHER
 
SELECT A DAY
Number of Records: 148,168;   Date Range: 11/1/95 - 8/12/14
 
SHARE

PRINT THIS DATA

[ ← Previous Day ]
WEATHER ALMANAC - FEBRUARY 22, 2013
[ Next Day → ]
[ °C ]   °F
Weather ElementAverageHighLow
Temperature32.7 °F37 °F (1:51 pm)25 °F (1:51 am)
Dewpoint21 °F30 °F (11:51 pm)14 °F (1:51 am)
Humidity62.4 %76 % (11:51 pm)50 % (1:51 pm)
Barometer30.33 in30.39 in (7:51 am)30.27 in (11:51 pm)
Wind Speed7.1 mph11.5 mph (7:51 am)
Wind Gust19.6 mph (4:51 am)
Weather ElementAverage
Visibility10 mi
Wind DirectionENE (73.5 °)

Weather ElementTotal
Precipitation---
Heating Degree Days34 (Base 65)
Averaged from 23 records on February 22, 2013
WEATHER CONDITIONS BREAKOUT
WIND DIRECTION BREAKOUT
WEATHER BY HOUR - FEBRUARY 22, 2013
[ °C ]   °F
Local TimeTemperatureDewpointHumidityBarometerVisibilityWind DirectionWind SpeedGust SpeedPrecipitationEventsConditions
1:51 AM25.0 °F14.0 °F63 %30.28 in10.0 miNNE (20°)9.2 mphClear
2:51 AM26.1 °F15.1 °F63 %30.31 in10.0 miNorth (360°)4.6 mphClear
3:51 AM26.1 °F16.0 °F66 %30.31 in10.0 miNorth (360°)10.4 mphClear
4:51 AM27.0 °F17.1 °F66 %30.33 in10.0 miVariable5.8 mph19.6 mphClear
5:51 AM27.0 °F17.1 °F66 %30.36 in10.0 miNE (40°)9.2 mphClear
6:51 AM27.0 °F18.0 °F69 %30.38 in10.0 miNNE (30°)5.8 mphClear
7:51 AM28.0 °F17.1 °F63 %30.39 in10.0 miNE (50°)11.5 mph17.3 mphClear
8:51 AM28.9 °F17.1 °F61 %30.39 in10.0 miNE (50°)10.4 mphClear
9:51 AM30.9 °F18.0 °F59 %30.39 in10.0 miVariable3.5 mphClear
10:51 AM33.1 °F18.0 °F54 %30.39 in10.0 miENE (70°)8.1 mphClear
11:51 AM34.0 °F19.0 °F54 %30.38 in10.0 miENE (60°)11.5 mphClear
12:51 PM36.0 °F19.9 °F52 %30.35 in10.0 miENE (70°)8.1 mphClear
1:51 PM37.0 °F19.9 °F50 %30.32 in10.0 miESE (120°)6.9 mphClear
2:51 PM37.0 °F19.9 °F50 %30.31 in10.0 miVariable4.6 mphClear
3:51 PM37.0 °F21.9 °F54 %30.32 in10.0 miVariable4.6 mphClear
4:51 PM36.0 °F23.0 °F59 %30.32 in10.0 miSouth (170°)9.2 mphOvercast
5:51 PM36.0 °F25.0 °F64 %30.33 in10.0 miVariable3.5 mphOvercast
6:51 PM36.0 °F26.1 °F67 %30.32 in10.0 miVariable4.6 mphOvercast
7:51 PM37.0 °F27.0 °F67 %30.32 in10.0 miSE (140°)5.8 mphOvercast
8:51 PM37.0 °F28.0 °F70 %30.31 in10.0 miVariable6.9 mphOvercast
9:51 PM37.0 °F28.0 °F70 %30.30 in10.0 miSSE (150°)8.1 mphOvercast
10:51 PM37.0 °F28.9 °F73 %30.29 in10.0 miVariable3.5 mphOvercast
11:51 PM37.0 °F30.0 °F76 %30.27 in10.0 miVariable6.9 mphOvercast
Hourly data recorded from KNYC, located miles away from New York - Central Park, New York







STORIES FROM OUR PARTNERS